Waarnemingen

Advertentie
Mijn weer
Dorans, Frankrijk (7296): temperatuur & dauwpunt: 20.04.2018 11:00:00 - 26.04.2018 11:00:00 (CEST)Dorans, Frankrijk (7296): temperatuur 5cm: 20.04.2018 11:00:00 - 26.04.2018 11:00:00 (CEST)Dorans, Frankrijk (7296): temperatuur -20cm & temperatuur -100cm: 20.04.2018 11:00:00 - 26.04.2018 11:00:00 (CEST)Dorans, Frankrijk (7296): windsnelheid & windstoten: 20.04.2018 11:00:00 - 26.04.2018 11:00:00 (CEST)Dorans, Frankrijk (7296): windrichting: 20.04.2018 11:00:00 - 26.04.2018 11:00:00 (CEST)Dorans, Frankrijk (7296): luchtdruk: 20.04.2018 11:00:00 - 26.04.2018 11:00:00 (CEST)Dorans, Frankrijk (7296): zicht: 20.04.2018 11:00:00 - 26.04.2018 11:00:00 (CEST)Dorans, Frankrijk (7296): neerslag: 20.04.2018 11:00:00 - 26.04.2018 11:00:00 (CEST)
Datum & Tijd tt [°C] td [°C] tt 5cm [°C] tt -20cm [°C] tt -100cm [°C] ff [km/u] ff [kn] fx [km/u] fx [kn] dd ppp [hPa] vv [km] rr [mm]
26.04.2018 11:00:00 10,4 5,6 - - - 15 8 28 15 WNW 1021,9 20 -
26.04.2018 10:00:00 10,0 6,0 10,7 14,3 11,3 13 7 36 19 W 1021,7 20 0,0
26.04.2018 09:00:00 9,6 7,2 9,9 14,4 11,2 8 5 23 13 WZW 1021,7 20 0,0
26.04.2018 08:00:00 9,4 8,2 8,5 14,5 11,3 12 7 23 13 W 1021,2 20 0,0
26.04.2018 07:00:00 8,8 7,9 7,3 14,6 11,3 10 5 23 12 WZW 1020,8 20 0,0
26.04.2018 06:00:00 8,7 7,8 7,0 14,7 11,3 11 6 24 13 ZW 1020,5 20 0,0
26.04.2018 05:00:00 9,1 8,2 8,1 14,8 11,3 14 7 27 15 ZW 1020,3 20 0,0
26.04.2018 04:00:00 9,5 8,1 8,7 15,0 11,3 15 8 29 16 WZW 1019,8 20 0,0
26.04.2018 03:00:00 9,7 8,5 9,1 15,1 11,2 14 7 31 17 W 1019,7 16 0,6
26.04.2018 02:00:00 10,1 8,7 9,5 15,2 11,2 14 8 34 18 W 1019,1 7 2,6
26.04.2018 01:00:00 11,8 9,5 10,5 15,3 11,2 15 8 29 16 WZW 1018,3 16 0,0
26.04.2018 00:00:00 12,5 8,6 8,9 15,4 11,2 16 8 33 18 ZW 1018,0 20 0,0
25.04.2018 23:00:00 11,9 8,4 9,6 15,5 11,2 12 7 23 12 WZW 1018,0 20 0,0
25.04.2018 22:00:00 12,9 8,6 10,7 15,6 11,2 15 8 38 21 W 1017,7 20 0,0
25.04.2018 21:00:00 14,1 8,3 12,4 15,6 11,2 20 11 48 26 W 1016,5 20 0,0
25.04.2018 20:00:00 16,9 8,6 15,8 15,6 11,2 22 12 45 25 W 1014,9 20 0,0
25.04.2018 19:00:00 17,8 9,2 17,2 15,6 11,2 14 7 38 20 WNW 1014,3 19 0,0
25.04.2018 18:00:00 19,3 11,1 19,2 15,4 11,2 21 11 56 31 WZW 1014,0 20 0,0
25.04.2018 17:00:00 19,6 10,8 21,9 15,3 11,1 29 15 58 32 W 1013,9 19 0,0
25.04.2018 16:00:00 19,5 10,8 19,7 15,1 11,1 30 16 54 29 WZW 1014,4 18 0,0
25.04.2018 15:00:00 19,1 11,1 20,5 15,0 11,1 23 12 45 25 WZW 1014,9 20 0,0
25.04.2018 14:00:00 18,3 11,6 21,2 14,8 11,2 26 14 54 29 WZW 1015,6 16 0,0
25.04.2018 13:00:00 17,7 11,5 18,3 14,6 11,1 21 11 53 29 WZW 1015,9 19 0,0
25.04.2018 12:00:00 18,2 10,6 18,8 14,6 11,1 30 16 54 29 WZW 1015,7 16 0,0
25.04.2018 11:00:00 16,8 11,3 16,9 14,5 11,1 22 12 48 26 WZW 1016,3 16 0,0
25.04.2018 10:00:00 15,7 11,1 16,3 14,6 11,1 23 13 41 22 W 1016,4 18 0,0
25.04.2018 09:00:00 14,9 10,3 13,1 14,6 11,1 16 9 32 17 W 1016,5 19 0,0
25.04.2018 08:00:00 13,7 8,9 10,5 14,7 11,1 16 9 28 15 WZW 1015,9 20 0,0
25.04.2018 07:00:00 12,6 8,3 8,4 14,9 11,1 14 7 24 13 WZW 1015,3 20 0,0
25.04.2018 06:00:00 12,1 8,2 8,6 15,0 11,1 10 6 22 12 WZW 1015,2 20 0,0
25.04.2018 05:00:00 12,6 8,5 8,7 15,1 11,1 8 5 15 8 WZW 1015,2 20 0,0
25.04.2018 04:00:00 11,7 8,5 8,7 15,3 11,1 9 5 15 8 ZW 1015,6 20 0,0
25.04.2018 03:00:00 13,4 8,9 7,6 15,4 11,1 9 5 26 14 ZW 1015,6 20 0,0
25.04.2018 02:00:00 11,5 8,5 7,4 15,6 11,1 11 6 16 9 ZW 1016,0 20 0,0
25.04.2018 01:00:00 11,5 8,9 7,7 15,7 11,1 9 5 14 8 ZW 1016,2 20 0,0
25.04.2018 00:00:00 12,6 9,2 8,3 15,9 11,1 11 6 16 9 ZW 1016,3 20 0,0
24.04.2018 23:00:00 12,6 8,9 8,4 16,1 11,1 8 5 12 7 ZW 1016,6 20 0,0
24.04.2018 22:00:00 15,5 8,0 10,8 16,1 11,1 9 5 14 8 W 1016,3 20 0,0
24.04.2018 21:00:00 16,8 8,2 12,8 16,2 11,0 7 4 13 7 W 1016,1 20 0,0
24.04.2018 20:00:00 18,2 8,7 15,6 16,2 11,0 8 4 22 12 W 1015,7 20 0,0
24.04.2018 19:00:00 20,0 8,6 20,5 16,0 11,0 9 5 29 15 WNW 1015,9 20 0,0
24.04.2018 18:00:00 20,2 9,4 23,4 15,9 11,0 16 8 31 17 WNW 1016,1 20 0,0
24.04.2018 17:00:00 20,5 10,9 26,0 15,6 11,0 13 7 32 17 WNW 1016,5 20 0,0
24.04.2018 16:00:00 20,4 11,1 25,8 15,3 11,0 16 9 36 19 NW 1017,2 20 0,0
24.04.2018 15:00:00 19,9 10,6 25,9 14,9 11,0 16 8 33 18 WNW 1017,8 20 0,0
24.04.2018 14:00:00 20,0 9,0 27,2 14,6 11,0 15 8 36 19 W 1018,4 19 0,0
24.04.2018 13:00:00 19,2 9,1 23,5 14,4 11,0 14 7 28 15 W 1018,9 19 0,0
24.04.2018 12:00:00 18,1 11,6 20,2 14,3 11,0 8 5 21 11 W 1019,7 19 0,0
24.04.2018 11:00:00 16,9 12,6 18,2 14,2 11,0 8 4 16 8 ZW 1020,0 20 0,0
24.04.2018 10:00:00 15,8 13,1 17,2 14,3 11,0 7 4 12 6 NW 1020,4 19 0,0
24.04.2018 09:00:00 14,5 13,0 11,5 14,3 10,9 3 1 8 4 OZO 1020,5 17 0,0
24.04.2018 08:00:00 11,4 10,9 10,7 14,4 11,0 2 1 5 3 ZZO 1021,1 9 0,0
24.04.2018 07:00:00 10,9 10,6 9,0 14,5 10,9 1 1 14 8 W 1021,0 8 0,2
24.04.2018 06:00:00 10,3 10,0 7,8 14,6 10,9 3 1 9 5 ZZW 1020,8 6 0,0
24.04.2018 05:00:00 10,3 10,0 6,3 14,7 10,9 7 4 9 5 WZW 1020,8 4,7 0,0
24.04.2018 04:00:00 10,4 9,9 7,7 14,8 10,9 3 2 8 4 ZZW 1020,8 0,4 0,0
24.04.2018 03:00:00 11,1 10,6 7,8 14,9 10,9 4 2 13 7 WNW 1020,7 1,6 0,0
24.04.2018 02:00:00 11,6 11,3 9,1 15,0 10,9 6 3 10 5 W 1020,8 4,5 0,0
24.04.2018 01:00:00 10,7 10,2 8,0 15,1 10,9 3 2 11 6 NNW 1021,1 0,1 0,0
24.04.2018 00:00:00 11,6 11,1 7,6 15,2 10,9 6 3 11 6 WZW 1021,1 1,1 0,2
23.04.2018 23:00:00 12,3 11,7 9,0 15,3 10,9 4 2 8 5 ZZW 1020,9 3,4 0,0
23.04.2018 22:00:00 12,8 12,2 8,8 15,4 10,8 6 3 11 6 WNW 1020,7 12 0,0
23.04.2018 21:00:00 12,9 12,0 10,7 15,4 10,8 5 3 12 7 NW 1020,0 10 0,0
23.04.2018 20:00:00 14,0 12,4 13,2 15,5 10,8 6 4 20 11 WZW 1019,2 19 0,0
23.04.2018 19:00:00 14,7 12,9 14,3 15,4 10,8 8 4 18 10 W 1019,1 19 0,0
23.04.2018 18:00:00 13,7 12,3 13,9 15,4 10,8 10 6 19 10 WZW 1019,6 19 0,6
23.04.2018 17:00:00 14,1 12,8 14,3 15,4 10,8 8 4 20 11 W 1019,3 14 1,2
23.04.2018 16:00:00 14,1 12,8 14,0 15,4 10,8 11 6 28 15 WZW 1020,0 15 0,8
23.04.2018 15:00:00 13,9 12,1 13,3 15,3 10,8 12 6 36 19 W 1020,1 19 0,2
23.04.2018 14:00:00 16,0 11,4 16,6 15,2 10,8 14 7 32 17 WNW 1019,5 20 0,0
23.04.2018 13:00:00 17,8 12,0 17,6 15,1 10,7 6 3 21 11 W 1018,6 20 0,0
23.04.2018 12:00:00 15,9 10,9 17,5 15,1 10,7 13 7 34 19 WNW 1019,1 20 0,0
23.04.2018 11:00:00 16,5 10,3 18,4 15,0 10,7 16 9 38 21 WNW 1018,8 16 0,0
23.04.2018 10:00:00 18,2 9,3 18,2 15,0 10,7 11 6 23 12 W 1017,3 20 0,0
23.04.2018 09:00:00 17,0 8,2 14,9 15,1 10,7 7 4 15 8 WNW 1017,5 20 0,0
23.04.2018 08:00:00 14,3 8,9 9,1 15,3 10,7 9 5 15 8 NW 1017,6 20 0,0
23.04.2018 07:00:00 11,9 7,0 8,1 15,4 10,7 2 1 4 2 WZW 1017,4 20 0,0
23.04.2018 06:00:00 12,8 7,2 8,1 15,5 10,7 1 0 13 7 W 1017,2 20 0,0
23.04.2018 05:00:00 14,4 7,2 9,2 15,7 10,7 5 3 22 12 W 1017,1 20 0,0
23.04.2018 04:00:00 15,2 7,5 10,7 15,9 10,7 9 5 16 9 WZW 1016,9 20 0,0
23.04.2018 03:00:00 14,5 8,2 11,2 16,0 10,6 4 2 17 9 WZW 1016,7 20 0,0
23.04.2018 02:00:00 15,8 7,3 11,0 16,1 10,6 9 5 15 8 ZW 1016,4 20 0,0
23.04.2018 01:00:00 15,3 7,8 11,5 16,3 10,6 5 3 12 6 Z 1016,3 20 0,0
23.04.2018 00:00:00 16,8 7,4 12,5 16,4 10,6 11 6 17 9 ZW 1015,9 20 0,0
22.04.2018 23:00:00 16,9 7,3 12,2 16,6 10,6 10 6 15 8 ZW 1015,9 20 0,0
22.04.2018 22:00:00 17,1 7,4 12,5 16,7 10,6 9 5 14 8 ZW 1015,6 20 0,0
22.04.2018 21:00:00 20,4 6,0 16,4 16,7 10,6 8 4 18 10 W 1014,7 20 0,0
22.04.2018 20:00:00 21,3 7,9 18,5 16,7 10,6 8 4 20 11 W 1014,0 20 0,0
22.04.2018 19:00:00 22,7 7,3 21,3 16,6 10,6 9 5 27 15 WNW 1013,5 20 0,0
22.04.2018 18:00:00 24,2 7,8 23,4 16,4 10,5 14 8 37 20 W 1013,0 20 0,0
22.04.2018 17:00:00 25,5 10,1 29,6 16,1 10,5 17 9 38 20 W 1012,9 19 0,0
22.04.2018 16:00:00 26,0 10,2 32,0 15,8 10,5 15 8 31 17 W 1013,1 19 0,0
22.04.2018 15:00:00 25,9 8,4 33,2 15,4 10,5 14 7 35 19 WZW 1013,8 18 0,0
22.04.2018 14:00:00 25,3 8,7 32,6 15,1 10,5 11 6 25 14 WNW 1014,4 20 0,0
22.04.2018 13:00:00 24,7 10,9 31,2 14,8 10,5 11 6 26 14 WNW 1014,9 20 0,0
22.04.2018 12:00:00 23,5 8,4 25,5 14,6 10,4 11 6 24 13 W 1015,5 20 0,0
22.04.2018 11:00:00 21,6 9,5 23,6 14,6 10,4 14 8 25 13 WZW 1016,2 20 0,0
22.04.2018 10:00:00 20,4 9,6 20,7 14,6 10,4 6 3 15 8 W 1016,2 20 0,0
22.04.2018 09:00:00 18,5 12,5 15,3 14,7 10,4 3 1 6 3 OZO 1016,5 20 0,0
22.04.2018 08:00:00 14,3 11,4 8,9 14,8 10,4 1 0 6 4 WZW 1017,1 20 0,0
22.04.2018 07:00:00 11,5 9,2 7,5 15,0 10,4 2 1 12 6 NNW 1017,2 20 0,0
22.04.2018 06:00:00 12,3 8,8 7,4 15,2 10,4 2 1 7 4 ZW 1016,8 20 0,0
22.04.2018 05:00:00 12,6 9,6 8,6 15,3 10,4 2 1 9 5 W 1016,9 20 0,0
22.04.2018 04:00:00 13,4 9,4 8,0 15,5 10,4 1 1 6 4 NNW 1016,9 20 0,0
22.04.2018 03:00:00 14,7 9,3 9,2 15,6 10,4 1 1 10 5 W 1016,8 20 0,0
22.04.2018 02:00:00 14,8 10,0 9,4 15,8 10,4 3 2 6 3 ZW 1017,2 20 0,0
22.04.2018 01:00:00 15,9 8,9 10,4 15,9 10,3 3 1 8 4 W 1017,4 20 0,0
22.04.2018 00:00:00 16,3 8,8 11,4 16,1 10,3 6 4 9 5 ZW 1017,3 20 0,0
21.04.2018 23:00:00 17,5 8,1 12,8 16,2 10,3 3 2 12 7 Z 1017,1 20 0,0
21.04.2018 22:00:00 20,2 7,5 15,1 16,3 10,3 10 5 16 9 NW 1016,6 20 0,0
21.04.2018 21:00:00 22,1 7,1 17,4 16,3 10,3 8 4 14 8 WNW 1016,1 20 0,0
21.04.2018 20:00:00 23,9 7,9 19,6 16,2 10,3 6 4 20 11 WNW 1015,6 20 0,0
21.04.2018 19:00:00 25,9 8,8 25,8 16,1 10,3 9 5 18 10 WNW 1015,4 20 0,0
21.04.2018 18:00:00 27,4 12,2 31,6 15,9 10,3 5 3 18 10 WNW 1015,3 19 0,0
21.04.2018 17:00:00 26,8 7,3 31,7 15,6 10,3 12 7 22 12 NW 1016,0 19 0,0
21.04.2018 16:00:00 27,4 11,8 35,9 15,3 10,2 5 3 22 12 N 1016,3 19 0,0
21.04.2018 15:00:00 26,3 9,2 35,4 15,0 10,2 7 4 24 13 ONO 1017,3 19 0,0
21.04.2018 14:00:00 26,0 9,8 34,0 14,6 10,2 7 4 16 9 N 1017,9 20 0,0
21.04.2018 13:00:00 25,6 11,0 33,0 14,3 10,2 4 2 13 7 NNW 1018,4 20 0,0
21.04.2018 12:00:00 24,8 11,4 27,3 14,1 10,2 2 1 9 5 N 1019,3 20 0,0
21.04.2018 11:00:00 23,0 12,9 24,6 14,1 10,2 4 2 11 6 ZZO 1019,9 19 0,0
21.04.2018 10:00:00 20,6 11,8 19,2 14,1 10,2 2 1 9 5 ZO 1020,2 20 0,0
21.04.2018 09:00:00 16,9 10,5 13,6 14,2 10,1 3 2 6 3 ZZO 1020,8 20 0,0
21.04.2018 08:00:00 14,3 10,7 7,7 14,3 10,1 1 1 6 4 WZW 1021,2 20 0,0
21.04.2018 07:00:00 10,8 8,9 6,6 14,5 10,1 2 1 9 5 W 1021,6 20 0,0
21.04.2018 06:00:00 11,3 8,5 7,6 14,6 10,1 2 1 9 5 WZW 1021,2 20 0,0
21.04.2018 05:00:00 11,9 9,5 6,3 14,8 10,1 5 3 16 9 ZW 1021,1 20 0,0
21.04.2018 04:00:00 12,9 9,5 7,3 14,9 10,1 1 1 4 2 NNO 1021,1 20 0,0
21.04.2018 03:00:00 13,2 9,4 8,8 15,1 10,1 1 1 4 2 NNO 1021,3 20 0,0
21.04.2018 02:00:00 14,1 9,1 9,0 15,2 10,1 3 2 6 3 NW 1021,2 20 0,0
21.04.2018 01:00:00 15,0 9,1 9,4 15,4 10,1 3 2 5 3 NNW 1021,4 20 0,0
21.04.2018 00:00:00 17,0 9,2 11,7 15,5 10,1 2 1 5 3 ZZW 1021,1 20 0,0
20.04.2018 23:00:00 18,1 8,9 10,8 15,6 10,1 4 2 10 5 OZO 1021,0 20 0,0
20.04.2018 22:00:00 20,1 8,4 11,7 15,7 10,0 6 3 20 11 ONO 1020,9 20 0,0
20.04.2018 21:00:00 21,2 8,5 15,9 15,7 10,0 4 2 6 3 NW 1020,4 20 0,0
20.04.2018 20:00:00 24,1 7,7 17,4 15,6 10,0 0 0 10 6 OZO 1019,6 20 0,0
20.04.2018 19:00:00 25,2 8,6 25,8 15,5 10,0 5 3 13 7 OZO 1019,5 20 0,0
20.04.2018 18:00:00 25,9 10,1 30,2 15,3 10,0 5 3 15 8 OZO 1019,6 20 0,0
20.04.2018 17:00:00 26,0 8,9 32,7 15,0 10,0 6 4 13 7 OZO 1020,0 19 0,0
20.04.2018 16:00:00 26,9 7,9 35,1 14,7 10,0 3 1 18 10 NNW 1020,4 20 0,0
20.04.2018 15:00:00 26,5 8,9 34,4 14,3 9,9 5 3 16 9 W 1021,1 18 0,0
20.04.2018 14:00:00 25,3 9,6 32,2 14,0 9,9 6 4 16 9 ONO 1021,7 20 0,0
20.04.2018 13:00:00 24,5 11,8 31,2 13,7 9,9 4 2 11 6 O 1022,3 20 0,0
20.04.2018 12:00:00 23,1 10,5 25,5 13,5 9,9 5 3 10 5 NNO 1022,9 19 0,0
20.04.2018 11:00:00 21,3 9,8 23,6 13,5 9,9 3 1 15 8 O 1023,4 17 0,0

tt = temperatuur
td = dauwpunt
tt 5cm = temperatuur 5cm
tt -20cm = temperatuur -20cm
tt -100cm = temperatuur -100cm
ff = windsnelheid
fx = windstoten
dd = windrichting
ppp = luchtdruk
vv = zicht
rr = neerslag

Weerstations in de omgeving